Grinnell, IA

11:43 PM CDT on August 28, 2016 (GMT -0500)
Grinnell Regional

Weather History for KGGI - April, 2013

Change the Weather History Date:

Monday, April 1, 2013

  Actual Average (KMIW) Record (KMIW)
Temperature  
Mean Temperature 30 °F 44 °F  
Max Temperature 37 °F 55 °F 86 °F (2003)
Min Temperature 22 °F 33 °F 21 °F (2002)
Degree Days  
Heating Degree Days 36 21  
Month to date heating degree days 21  
Since 1 July heating degree days 6322  
Cooling Degree Days 0 0  
Month to date cooling degree days 0  
Year to date cooling degree days 0  
Moisture  
Dew Point 19 °F    
Average Humidity 68    
Maximum Humidity 86    
Minimum Humidity 47    
Precipitation  
Precipitation 0.00 in 0.06 in 0.13 in (2007)
Month to date precipitation 0.06  
Sea Level Pressure  
Sea Level Pressure 30.21 in    
Wind  
Wind Speed 13 mph (NW)    
Max Wind Speed 18 mph    
Max Gust Speed 26 mph    
Visibility 10 miles    
Events      
T = Trace of Precipitation, MM = Missing Value Source: NWS Daily Summary

Daily Weather History Graph

Daily Weather History Graph

Search for Another Location

Airport or City:

Trip Planner

Search our weather history database for the weather conditions in past years. The results will help you decide how hot, cold, wet, or windy it might be!

Date:

Astronomy

Apr. 01, 2013 Rise Set
Actual Time 6:53 AM CDT 7:36 PM CDT
Civil Twilight 6:25 AM CDT 8:04 PM CDT
Nautical Twilight 5:52 AM CDT 8:38 PM CDT
Astronomical Twilight 5:17 AM CDT 9:12 PM CDT
Moon 12:48 AM CDT (4/1) 10:37 AM CDT (4/1)
Length of Visible Light 13h 39m
Length of Day
12h 43m
Waning Gibbous, 67% of the Moon is Illuminated
Apr 1
Waning Gibbous
Apr 2
Last Quarter
Apr 10
New
Apr 18
First Quarter
Apr 25
Full

Hourly Weather History & Observations

Time (CDT) Temp. Windchill Dew Point Humidity Pressure Visibility Wind Dir Wind Speed Gust Speed Precip Events Conditions
12:15 AM 30.9 °F 20.7 °F 22.8 °F 72% 30.07 in 10.0 mi NW 13.8 mph 23.0 mph N/A   Overcast
12:35 AM 30.2 °F 18.1 °F 23.7 °F 77% 30.08 in 10.0 mi NW 18.4 mph - N/A   Mostly Cloudy
12:55 AM 29.3 °F 17.7 °F 21.9 °F 74% 30.09 in 10.0 mi NW 16.1 mph 20.7 mph N/A   Scattered Clouds
1:15 AM 28.6 °F 17.2 °F 22.1 °F 77% 30.09 in 10.0 mi NNW 15.0 mph 19.6 mph N/A   Scattered Clouds
1:35 AM 28.0 °F 16.1 °F 20.7 °F 74% 30.09 in 10.0 mi NW 16.1 mph 23.0 mph N/A   Scattered Clouds
1:55 AM 27.5 °F 15.4 °F 20.8 °F 76% 30.10 in 10.0 mi NNW 16.1 mph 21.9 mph N/A   Scattered Clouds
2:15 AM 27.3 °F 16.1 °F 21.2 °F 78% 30.10 in 10.0 mi NW 13.8 mph 23.0 mph N/A   Scattered Clouds
2:35 AM 27.3 °F 16.6 °F 21.2 °F 78% 30.11 in 10.0 mi NNW 12.7 mph 20.7 mph N/A   Scattered Clouds
2:55 AM 27.0 °F 15.6 °F 21.2 °F 79% 30.11 in 10.0 mi NW 13.8 mph 18.4 mph N/A   Mostly Cloudy
3:15 AM 26.2 °F 14.2 °F 20.1 °F 78% 30.11 in 10.0 mi NW 15.0 mph 23.0 mph N/A   Mostly Cloudy
3:35 AM 25.3 °F 14.7 °F 20.3 °F 81% 30.12 in 10.0 mi NW 11.5 mph 17.3 mph N/A   Scattered Clouds
3:55 AM 25.0 °F 13.1 °F 20.1 °F 82% 30.12 in 10.0 mi NNW 13.8 mph - N/A   Scattered Clouds
4:15 AM 25.2 °F 13.9 °F 19.9 °F 81% 30.13 in 10.0 mi NNW 12.7 mph - N/A   Scattered Clouds
4:35 AM 24.4 °F 13.5 °F 19.9 °F 83% 30.14 in 10.0 mi NW 11.5 mph - N/A   Scattered Clouds
4:55 AM 23.9 °F 12.3 °F 19.6 °F 84% 30.14 in 10.0 mi NW 12.7 mph - N/A   Clear
5:15 AM 23.7 °F 12.6 °F 19.8 °F 85% 30.15 in 10.0 mi NW 11.5 mph - N/A   Clear
5:35 AM 23.4 °F 12.8 °F 19.2 °F 84% 30.16 in 10.0 mi NW 10.4 mph - N/A   Clear
5:55 AM 22.8 °F 12.2 °F 19.2 °F 86% 30.17 in 10.0 mi NW 10.4 mph - N/A   Clear
6:15 AM 22.6 °F 11.3 °F 19.0 °F 86% 30.18 in 10.0 mi NW 11.5 mph - N/A   Clear
6:35 AM 22.6 °F 11.9 °F 18.9 °F 85% 30.19 in 10.0 mi NW 10.4 mph - N/A   Clear
6:55 AM 22.8 °F 9.9 °F 18.5 °F 83% 30.19 in 10.0 mi NW 15.0 mph 18.4 mph N/A   Scattered Clouds
7:15 AM 23.0 °F 11.1 °F 18.9 °F 84% 30.20 in 10.0 mi NW 12.7 mph 18.4 mph N/A   Scattered Clouds
7:35 AM 23.0 °F 12.4 °F 18.7 °F 84% 30.21 in 10.0 mi NW 10.4 mph - N/A   Clear
7:55 AM 23.9 °F 11.7 °F 19.0 °F 82% 30.22 in 10.0 mi NW 13.8 mph 18.4 mph N/A   Clear
8:15 AM 24.6 °F 13.8 °F 19.4 °F 81% 30.23 in 10.0 mi WNW 11.5 mph - N/A   Scattered Clouds
8:35 AM 25.0 °F 13.6 °F 19.0 °F 78% 30.24 in 10.0 mi NW 12.7 mph - N/A   Scattered Clouds
8:55 AM 25.7 °F 12.7 °F 18.5 °F 74% 30.24 in 10.0 mi NW 17.3 mph - N/A   Clear
9:15 AM 26.6 °F 14.7 °F 18.0 °F 70% 30.25 in 10.0 mi NW 15.0 mph - N/A   Clear
9:35 AM 27.3 °F 16.6 °F 18.3 °F 69% 30.25 in 10.0 mi WNW 12.7 mph 19.6 mph N/A   Scattered Clouds
9:55 AM 28.2 °F 17.7 °F 17.4 °F 64% 30.25 in 10.0 mi NW 12.7 mph 17.3 mph N/A   Scattered Clouds
10:15 AM 28.4 °F 17.0 °F 17.1 °F 63% 30.26 in 10.0 mi NW 15.0 mph 19.6 mph N/A   Clear
10:35 AM 28.9 °F 18.6 °F 16.9 °F 61% 30.26 in 10.0 mi NW 12.7 mph 16.1 mph N/A   Clear
10:55 AM 30.0 °F 19.5 °F 18.0 °F 61% 30.26 in 10.0 mi NW 13.8 mph 21.9 mph N/A   Clear
11:15 AM 30.7 °F 20.4 °F 18.3 °F 60% 30.26 in 10.0 mi NW 13.8 mph - N/A   Clear
11:35 AM 31.3 °F 20.7 °F 16.9 °F 55% 30.26 in 10.0 mi NW 15.0 mph 21.9 mph N/A   Clear
11:55 AM 32.0 °F 20.8 °F 17.6 °F 55% 30.27 in 10.0 mi NW 17.3 mph 21.9 mph N/A   Clear
12:15 PM 32.7 °F 23.4 °F 17.1 °F 53% 30.26 in 10.0 mi NNW 12.7 mph 19.6 mph N/A   Clear
12:35 PM 33.1 °F 23.4 °F 17.8 °F 53% 30.26 in 10.0 mi WNW 13.8 mph 21.9 mph N/A   Clear
12:55 PM 33.8 °F 24.8 °F 16.5 °F 49% 30.26 in 10.0 mi NW 12.7 mph 21.9 mph N/A   Clear
1:15 PM 34.7 °F 24.7 °F 18.0 °F 51% 30.26 in 10.0 mi NW 16.1 mph 21.9 mph N/A   Clear
1:35 PM 35.1 °F 25.2 °F 19.2 °F 53% 30.26 in 10.0 mi NW 16.1 mph 23.0 mph N/A   Clear
1:55 PM 35.1 °F 25.5 °F 17.6 °F 49% 30.25 in 10.0 mi WNW 15.0 mph 20.7 mph N/A   Clear
2:15 PM 36.7 °F 28.0 °F 19.0 °F 49% 30.25 in 10.0 mi NNW 13.8 mph 19.6 mph N/A   Clear
2:35 PM 36.1 °F 26.9 °F 18.3 °F 48% 30.24 in 10.0 mi NW 15.0 mph 26.5 mph N/A   Clear
2:55 PM 36.9 °F 28.7 °F 19.0 °F 49% 30.24 in 10.0 mi NW 12.7 mph 21.9 mph N/A   Scattered Clouds
3:15 PM 37.2 °F 29.1 °F 19.6 °F 49% 30.24 in 10.0 mi NNW 12.7 mph 21.9 mph N/A   Clear
3:35 PM 37.0 °F 27.7 °F 19.0 °F 48% 30.24 in 10.0 mi NW 16.1 mph 24.2 mph N/A   Scattered Clouds
3:55 PM 36.7 °F 26.9 °F 18.3 °F 47% 30.24 in 10.0 mi NW 17.3 mph 20.7 mph N/A   Scattered Clouds
4:15 PM 36.9 °F 27.1 °F 18.3 °F 47% 30.24 in 10.0 mi NW 17.3 mph 21.9 mph N/A   Clear
4:35 PM 37.9 °F 29.2 °F 19.2 °F 47% 30.24 in 10.0 mi NW 15.0 mph 21.9 mph N/A   Scattered Clouds
4:55 PM 36.5 °F 27.4 °F 17.8 °F 47% 30.24 in 10.0 mi NNW 15.0 mph 19.6 mph N/A   Scattered Clouds
5:15 PM 35.8 °F 26.9 °F 18.3 °F 49% 30.24 in 10.0 mi NW 13.8 mph - N/A   Scattered Clouds
5:35 PM 35.2 °F 25.0 °F 18.9 °F 51% 30.24 in 10.0 mi NW 17.3 mph 20.7 mph N/A   Scattered Clouds
5:55 PM 35.6 °F 26.2 °F 18.9 °F 51% 30.23 in 10.0 mi WNW 15.0 mph - N/A   Scattered Clouds
6:15 PM 35.2 °F 25.8 °F 18.9 °F 51% 30.24 in 10.0 mi NW 15.0 mph 18.4 mph N/A   Scattered Clouds
6:35 PM 34.7 °F 26.9 °F 18.7 °F 52% 30.24 in 10.0 mi NNW 10.4 mph - N/A   Clear
6:55 PM 33.8 °F 24.8 °F 18.9 °F 54% 30.24 in 10.0 mi NW 12.7 mph - N/A   Scattered Clouds
7:15 PM 32.7 °F 23.4 °F 19.4 °F 58% 30.24 in 10.0 mi NW 12.7 mph 18.4 mph N/A   Clear
7:35 PM 31.1 °F 22.4 °F 19.6 °F 62% 30.24 in 10.0 mi NW 10.4 mph - N/A   Clear
7:55 PM 29.7 °F 22.8 °F 20.1 °F 68% 30.24 in 10.0 mi NW 6.9 mph - N/A   Clear
8:15 PM 27.5 °F 20.2 °F 19.9 °F 73% 30.24 in 10.0 mi NW 6.9 mph - N/A   Clear
8:35 PM 27.7 °F 19.6 °F 20.3 °F 74% 30.24 in 10.0 mi NNW 8.1 mph - N/A   Clear
8:55 PM 27.5 °F 22.2 °F 20.3 °F 74% 30.25 in 10.0 mi NW 4.6 mph - N/A   Clear
9:15 PM 27.0 °F 20.5 °F 20.5 °F 77% 30.26 in 10.0 mi NW 5.8 mph - N/A   Clear
9:35 PM 25.7 °F 19.0 °F 20.1 °F 79% 30.26 in 10.0 mi WNW 5.8 mph - N/A   Clear
9:55 PM 26.2 °F 22.1 °F 19.9 °F 77% 30.27 in 10.0 mi WNW 3.5 mph - N/A   Clear
10:15 PM 25.5 °F 21.3 °F 20.3 °F 81% 30.27 in 10.0 mi WNW 3.5 mph - N/A   Clear
10:35 PM 25.2 °F 20.9 °F 20.3 °F 82% 30.27 in 10.0 mi NW 3.5 mph - N/A   Clear
10:55 PM 25.5 °F 19.9 °F 20.3 °F 81% 30.27 in 10.0 mi WNW 4.6 mph - N/A   Clear
11:15 PM 23.7 °F 17.8 °F 19.0 °F 82% 30.27 in 10.0 mi NW 4.6 mph - N/A   Clear
11:35 PM 25.0 °F 20.7 °F 20.3 °F 82% 30.27 in 10.0 mi NW 3.5 mph - N/A   Clear
11:55 PM 24.1 °F 19.7 °F 19.2 °F 82% 30.27 in 10.0 mi WNW 3.5 mph - N/A   Clear